Location: Ariel
(45.9570°N, 122.5700°W)
Time: 02:46:11
(UTC-07:00)

Altair - Pass Details

Date: 25 July 2019
Orbit: 1501 x 1683 km, 47.2° (Epoch: 23 August)

Event Time Altitude Azimuth Distance (km) Brightness Sun altitude
Rises 19:58:21 0° 287° (WNW) 4,669 12.6 7.0°
Reaches altitude 10° 20:03:02 10° 266° (W) 3,709 10.9 6.3°
Maximum altitude 20:07:50 15° 235° (SW) 3,328 9.8 5.5°
Drops below altitude 10° 20:12:43 10° 203° (SSW) 3,770 9.6 4.7°
Sets 20:17:36 0° 183° (S) 4,788 9.9 3.9°
